Location: Unspecified
(0.0000°N, 0.0000°E)
Time: 12:00:06
(UTC+00:00)

KAITUO 1B - Visible Passes

Search period start: 26 March 2019 00:00
Search period end: 05 April 2019 00:00
Orbit: 496 x 519 km, 97.5° (Epoch: 26 March)

Date Brightness Start Highest point End Pass type
(mag) Time Alt. Az. Time Alt. Az. Time Alt. Az.
26 Mar ? 05:30:07 10° NE 05:33:21 29° ESE 05:36:35 10° SSE visible
26 Mar ? 18:58:04 10° WSW 18:58:28 10° WSW 18:58:52 10° W visible
27 Mar ? 05:13:49 10° ENE 05:16:07 16° ESE 05:18:24 10° SE visible
27 Mar ? 18:38:33 10° SSW 18:41:15 19° WSW 18:43:55 10° NW visible
31 Mar ? 05:37:15 10° NNE 05:40:43 38° ESE 05:44:12 10° S visible
01 Apr ? 05:20:39 10° NE 05:23:28 21° ESE 05:26:18 10° SSE visible
01 Apr ? 18:46:30 10° SW 18:48:36 15° WSW 18:50:41 10° WNW visible
02 Apr ? 05:05:08 10° E 05:06:13 11° ESE 05:07:19 10° ESE visible
02 Apr ? 18:28:11 10° SSW 18:31:20 27° WSW 18:34:30 10° NW visible
